This is the latest recevied weather packets stored in our database for station/object K6GMW. If no packets are shown the sender has not sent any weather packets the latest 10 day(s).
| Time | Temp. | Humidity | Pressure | Rain* | Wind** | Luminosity | Snow |
|---|---|---|---|---|---|---|---|
| 1777896594 | 12.78° C | 87% | 1016.2 hPa | 0 mm | - | 35 W/m² | - |
| 1777896290 | 12.78° C | 88% | 1016.3 hPa | 0 mm | - | 31 W/m² | - |
| 1777895989 | 12.78° C | 88% | 1016.2 hPa | 0 mm | - | 27 W/m² | - |
| 1777895686 | 12.78° C | 88% | 1016.2 hPa | 0 mm | - | 24 W/m² | - |
| 1777895383 | 12.78° C | 87% | 1016.1 hPa | 0 mm | - | 19 W/m² | - |
| 1777895081 | 12.78° C | 87% | 1016 hPa | 0 mm | - | 15 W/m² | - |
| 1777894778 | 12.78° C | 87% | 1015.9 hPa | 0 mm | - | 11 W/m² | - |
| 1777894474 | 12.78° C | 86% | 1016.1 hPa | 0 mm | - | 7 W/m² | - |
| 1777894172 | 12.78° C | 86% | 1016 hPa | 0 mm | - | 4 W/m² | - |
| 1777893869 | 12.78° C | 86% | 1016 hPa | 0 mm | - | 2 W/m² | - |
| 1777893565 | 12.78° C | 86% | 1015.9 hPa | 0 mm | - | 1 W/m² | - |
| 1777893262 | 12.78° C | 86% | 1015.9 hPa | 0 mm | - | 0 W/m² | - |
| 1777892959 | 12.78° C | 86% | 1016 hPa | 0 mm | - | 0 W/m² | - |
| 1777892655 | 12.78° C | 87% | 1016.1 hPa | 0 mm | - | 0 W/m² | - |
| 1777892351 | 12.78° C | 87% | 1015.9 hPa | 0 mm | - | 0 W/m² | - |
| 1777892047 | 12.78° C | 85% | 1015.9 hPa | 0 mm | - | 0 W/m² | - |
| 1777891745 | 13.33° C | 85% | 1015.7 hPa | 0 mm | - | 0 W/m² | - |
| 1777891441 | 13.33° C | 85% | 1015.7 hPa | 0 mm | - | 0 W/m² | - |
| 1777891136 | 13.33° C | 86% | 1015.8 hPa | 0 mm | - | 0 W/m² | - |
| 1777890832 | 13.33° C | 86% | 1015.5 hPa | 0 mm | - | 0 W/m² | - |
| 1777890528 | 12.78° C | 86% | 1015.6 hPa | 0 mm | - | 0 W/m² | - |
| 1777890223 | 12.78° C | 86% | 1015.8 hPa | 0 mm | - | 0 W/m² | - |
| 1777889920 | 13.33° C | 85% | 1015.8 hPa | 0 mm | - | 0 W/m² | - |
| 1777889618 | 13.33° C | 84% | 1015.9 hPa | 0 mm | - | 0 W/m² | - |
| 1777889315 | 13.89° C | 83% | 1016.1 hPa | 0 mm | - | 0 W/m² | - |
* Rain latest hour (hover to see other rain measurements)
** Current wind speed in m/s (hover to see current wind gust speed)